SITRO-AIS 7 (FARTUSHNIY)

Last updated on Sat Aug 15 2026 00:03:45 GMT+0000 (Coordinated Universal Time)

1 57194U 23091AE 26226.60360001 .00004981 00000+0 19319-3 0 9992 2 57194 97.5019 289.6883 0009500 258.5102 101.5070 15.26555881173180
UTC large
Height (km)
Speed (km/s)
/
Latitude / Longitude
Inclination (degrees)
Orbital Period (minutes)
Azimuth
Elevation
Range (km)
Doppler Factor

Next 0 passes for location: London (51.5072 / 0.1276)

No passes found over London.
SITRO-AIS 7 (FARTUSHNIY)